Weather observations for the past three days for
Durant, Eaker Field Airport
Imperial (Metric)
Date Time (cdt) Wind (mph) Vis. (mi.) Weather Sky Cond. Temperature (ºF) Relative Humidity Wind Chill (°F) Heat Index (°F) Pressure Precipitation (in)
Air Dwpt 6 hour altimeter (in) sea level (mb) 1 hr 3 hr 6 hr
Max. Min.
17 18:15 Calm 10.00 Mostly Cloudy SCT035 BKN100 86 68 55% 89 30.01 0.0
17 17:55 E 3 10.00 Overcast OVC100 86 68 55% 89 30.01 0.0
17 17:35 E 3 10.00 Overcast OVC100 86 66.2 52% 88 30.01 0.0
17 17:15 Calm 10.00 Overcast OVC100 86 66.2 52% 88 30.01 0.0
17 16:55 Calm 10.00 Overcast OVC100 86 66.2 52% 88 30 0.0
17 16:35 Calm 10.00 Mostly Cloudy BKN110 86 66.2 52% 88 30 0.0
17 16:15 Calm 10.00 Mostly Cloudy BKN110 86 66.2 52% 88 30 0.0
17 15:55 Calm 10.00 Mostly Cloudy BKN120 86 64.4 49% 87 30 0.0
17 15:35 N 8 10.00 Partly Cloudy SCT110 86 64.4 49% 87 30 0.0
17 15:15 N 10 5.00 Mostly Cloudy with Haze BKN120 86 66.2 52% 88 30.01 0.0
17 14:55 N 8 10.00 Overcast OVC120 84.2 68 58% 87 30.01 0.0
17 14:35 N 6 10.00 Mostly Cloudy BKN120 84.2 68 58% 87 30.01 0.0
17 14:15 N 6 10.00 Fair CLR 82.4 68 62% 85 30.02 0.0
17 13:55 N 3 10.00 Fair CLR 82.4 68 62% 85 30.03 0.0
17 13:35 Calm 10.00 Partly Cloudy SCT050 SCT120 82.4 68 62% 85 30.04 0.0
17 13:15 N 3 10.00 Mostly Cloudy SCT050 SCT070 BKN120 82.4 68 62% 85 30.05 0.0
17 12:55 N 3 10.00 Light Rain SCT036 SCT050 BKN070 84.2 68 58% 87 30.05 0.0
17 12:35 Calm 10.00 Light Rain SCT036 BKN043 OVC110 84.2 66.2 55% 87 30.06 0.0
17 12:15 NE 3 10.00 Mostly Cloudy BKN040 BKN120 86 66.2 52% 88 30.05 0.0
17 11:55 E 5 10.00 Partly Cloudy SCT038 86 66.2 52% 88 30.05 0.0
17 11:35 E 9 10.00 Fair CLR 84.2 66.2 55% 87 30.04 0.0
17 11:15 E 8 10.00 Fair CLR 84.2 68 58% 87 30.04 0.0
17 10:55 NE 7 10.00 Fair CLR 82.4 68 62% 85 30.05 0.0
17 10:35 NE 6 10.00 Fair CLR 82.4 68 62% 85 30.04 0.0
17 10:15 NE 7 10.00 Fair CLR 82.4 68 62% 85 30.03 0.0
17 09:55 E 8 10.00 Fair CLR 82.4 68 62% 85 30.01 0.0
17 09:35 E 8 10.00 Fair CLR 82.4 68 62% 85 30 0.0
17 09:15 E 5 10.00 Fair CLR 82.4 68 62% 85 30 0.0
17 08:55 E 6 10.00 Fair CLR 80.6 68 66% 83 30 0.0
17 08:35 E 7 10.00 Fair CLR 80.6 68 66% 83 30 0.0
17 08:15 E 6 10.00 Fair CLR 80.6 69.8 70% 84 30 0.0
17 07:55 E 5 10.00 Fair CLR 80.6 69.8 70% 84 30 0.0
17 07:35 E 3 10.00 Fair CLR 78.8 69.8 74% 81 30 0.0
17 07:15 NE 5 10.00 Fair CLR 78.8 69.8 74% 81 29.99 0.0
17 06:55 N 3 10.00 Fair CLR 78.8 69.8 74% 81 30 0.0
17 06:35 Calm 10.00 Fair CLR 80.6 69.8 70% 84 29.99 0.0
17 06:15 Calm 10.00 Fair CLR 82.4 69.8 66% 86 29.98 0.0
17 05:55 W 3 0.25 Sky Obscured with Haze VV002 82.4 69.8 66% 86 29.98 0.0
17 05:35 Calm 0.15 Mostly Cloudy with Haze BKN075 82.4 69.8 66% 86 29.98 0.0
17 05:15 NW 6 0.15 Sky Obscured with Haze VV000 80.6 69.8 70% 84 29.99 0.0
17 04:55 SW 3 0.15 Sky Obscured with Haze VV000 80.6 69.8 70% 84 29.96 0.0
17 04:35 Calm 0.15 Sky Obscured with Haze VV000 80.6 69.8 70% 84 29.96 0.0
17 04:15 SW 3 0.15 Sky Obscured with Haze VV000 80.6 69.8 70% 84 29.95 0.0
17 03:55 SW 3 0.15 Sky Obscured with Haze VV000 82.4 69.8 66% 86 29.96 0.0
17 03:35 SW 3 0.15 Sky Obscured with Haze VV000 82.4 69.8 66% 86 29.95 0.0
17 03:15 SW 3 0.25 Sky Obscured with Haze VV002 82.4 69.8 66% 86 29.94 0.0
17 02:55 S 6 0.50 Sky Obscured with Haze VV005 82.4 69.8 66% 86 29.94 0.0
17 02:35 S 7 1.50 Sky Obscured with Haze VV007 80.6 69.8 70% 84 29.93 0.0
17 02:15 S 7 2.50 Fair with Haze CLR 80.6 69.8 70% 84 29.93 0.0
17 01:55 S 8 2.00 Fair with Haze CLR 82.4 69.8 66% 86 29.93 0.0
17 01:35 S 8 2.50 Fair with Haze CLR 82.4 69.8 66% 86 29.92 0.0
17 01:15 S 8 5.00 Fair with Haze CLR 82.4 68 62% 85 29.92 0.0
17 00:55 S 8 3.00 Drizzle CLR 82.4 68 62% 85 29.92 0.0
17 00:35 S 7 0.50 Light Rain VV005 84.2 68 58% 87 29.92 0.0
17 00:15 S 7 5.00 Fair with Haze CLR 84.2 68 58% 87 29.92 0.0
16 23:55 S 8 10.00 Fair CLR 86 68 55% 89 29.91 0.0
16 23:35 S 8 10.00 Fair CLR 86 64.4 49% 87 29.9 0.0
16 23:15 S 8 10.00 Fair CLR 86 64.4 49% 87 29.9 0.0
16 22:55 S 7 10.00 Fair CLR 86 62.6 46% 87 29.9 0.0
16 22:35 S 7 10.00 Fair CLR 87.8 62.6 43% 88 29.9 0.0
16 22:15 S 8 10.00 Fair CLR 87.8 62.6 43% 88 29.89 0.0
16 21:55 S 8 10.00 Fair CLR 89.6 62.6 41% 90 29.89 0.0
16 21:35 S 7 10.00 Fair CLR 89.6 62.6 41% 90 29.88 0.0
16 21:15 S 9 10.00 Fair CLR 89.6 62.6 41% 90 29.87 0.0
16 20:55 S 9 10.00 Fair CLR 89.6 62.6 41% 90 29.86 0.0
16 20:35 S 6 10.00 Fair CLR 91.4 64.4 41% 93 29.87 0.0
16 20:15 S 7 10.00 Partly Cloudy SCT110 91.4 64.4 41% 93 29.87 0.0
16 19:55 S 7 10.00 Fair CLR 91.4 64.4 41% 93 29.88 0.0
16 19:35 S 3 10.00 Fair CLR 93.2 66.2 41% 96 29.89 0.0
16 19:15 S 6 10.00 Fair CLR 95 68 41% 100 29.89 0.0
16 18:55 S 3 10.00 Fair CLR 96.8 64.4 34% 99 29.89 0.0
16 18:35 S 3 10.00 Fair CLR 96.8 64.4 34% 99 29.89 0.0
16 18:15 S 3 10.00 Fair CLR 98.6 62.6 31% 100 29.89 0.0
16 17:55 S 6 10.00 Fair CLR 98.6 59 27% 98 29.88 0.0
16 17:35 S 10 10.00 Fair CLR 100.4 59 25% 100 29.88 0.0
16 17:15 S 14 G 17 10.00 Fair CLR 100.4 57.2 24% 100 29.88 0.0
16 16:55 SW 13 10.00 Fair CLR 102.2 59 24% 102 29.88 0.0
16 16:35 SW 12 G 18 10.00 Fair CLR 100.4 59 25% 100 29.88 0.0
16 16:15 SW 13 G 21 10.00 Fair CLR 100.4 60.8 27% 101 29.88 0.0
16 15:55 S 14 10.00 Fair CLR 100.4 59 25% 100 29.89 0.0
16 15:35 SW 13 G 17 10.00 Fair CLR 100.4 60.8 27% 101 29.89 0.0
16 15:15 SW 15 10.00 Fair CLR 100.4 59 25% 100 29.9 0.0
16 14:55 SW 15 G 20 10.00 Fair CLR 100.4 60.8 27% 101 29.9 0.0
16 14:35 SW 13 10.00 Fair CLR 98.6 60.8 29% 99 29.9 0.0
16 14:15 SW 13 G 18 10.00 Fair CLR 98.6 59 27% 98 29.91 0.0
16 13:55 S 14 G 18 10.00 Fair CLR 98.6 60.8 29% 99 29.92 0.0
16 13:35 SW 14 G 23 10.00 Fair CLR 98.6 59 27% 98 29.92 0.0
16 13:15 SW 13 G 22 10.00 Fair CLR 96.8 59 28% 96 29.93 0.0
16 12:55 SW 10 G 20 10.00 Fair CLR 96.8 60.8 30% 97 29.94 0.0
16 12:35 SW 14 10.00 Fair CLR 96.8 62.6 32% 98 29.94 0.0
16 12:15 SW 16 G 21 10.00 Fair CLR 95 62.6 34% 96 29.95 0.0
16 11:55 SW 14 G 20 10.00 Fair CLR 95 62.6 34% 96 29.95 0.0
16 11:35 SW 15 10.00 Fair CLR 91.4 62.6 38% 92 29.95 0.0
16 11:15 SW 14 10.00 Fair CLR 91.4 64.4 41% 93 29.95 0.0
16 10:55 SW 16 G 21 10.00 Fair CLR 91.4 64.4 41% 93 29.95 0.0
16 10:35 SW 15 G 21 10.00 Fair CLR 89.6 64.4 43% 91 29.95 0.0
16 10:15 SW 16 G 21 10.00 Fair CLR 89.6 64.4 43% 91 29.95 0.0
16 09:55 SW 13 G 21 10.00 Fair CLR 87.8 64.4 46% 89 29.95 0.0
16 09:35 SW 12 G 20 10.00 Fair CLR 87.8 66.2 49% 90 29.95 0.0
16 09:15 SW 15 10.00 Fair CLR 86 68 55% 89 29.96 0.0
16 08:55 SW 15 G 20 10.00 Fair CLR 84.2 68 58% 87 29.96 0.0
16 08:35 SW 12 10.00 Fair CLR 82.4 69.8 66% 86 29.96 0.0
16 08:15 SW 12 G 16 10.00 Fair CLR 82.4 69.8 66% 86 29.96 0.0
16 07:55 S 9 10.00 Fair CLR 80.6 69.8 70% 84 29.95 0.0
16 07:35 S 9 10.00 Fair CLR 78.8 69.8 74% 81 29.95 0.0
16 07:15 S 9 10.00 Fair CLR 78.8 69.8 74% 81 29.94 0.0
16 06:55 S 8 10.00 Fair CLR 78.8 69.8 74% 81 29.94 0.0
16 06:35 S 9 10.00 Fair CLR 78.8 69.8 74% 81 29.93 0.0
16 06:15 S 9 0.75 Sky Obscured with Haze VV005 78.8 69.8 74% 81 29.92 0.0
16 05:55 S 8 0.50 Sky Obscured with Haze VV005 78.8 69.8 74% 81 29.92 0.0
16 05:35 S 8 1.00 Sky Obscured with Haze VV007 78.8 69.8 74% 81 29.91 0.0
16 05:15 S 7 5.00 Fair with Haze CLR 78.8 69.8 74% 81 29.9 0.0
16 04:55 S 5 7.00 Fair CLR 78.8 69.8 74% 81 29.9 0.0
16 04:35 S 6 2.50 Fair with Haze CLR 78.8 69.8 74% 81 29.9 0.0
16 04:15 S 6 7.00 Fair CLR 78.8 68 70% 81 29.9 0.0
16 03:55 S 6 1.50 Sky Obscured with Haze VV007 78.8 68 70% 81 29.9 0.0
16 03:35 S 6 0.50 Sky Obscured with Haze VV005 80.6 68 66% 83 29.9 0.0
16 03:15 S 7 0.25 Sky Obscured with Haze VV002 80.6 68 66% 83 29.9 0.0
16 02:55 S 7 0.25 Sky Obscured with Haze VV002 80.6 68 66% 83 29.91 0.0
16 02:35 S 8 0.25 Sky Obscured with Haze VV002 80.6 68 66% 83 29.9 0.0
16 02:15 S 8 0.50 Sky Obscured with Haze VV005 80.6 68 66% 83 29.91 0.0
16 01:55 S 8 0.50 Sky Obscured with Haze VV005 82.4 68 62% 85 29.91 0.0
16 01:35 S 8 0.50 Sky Obscured with Haze VV005 82.4 68 62% 85 29.92 0.0
16 01:15 S 9 0.25 Sky Obscured with Haze VV002 82.4 68 62% 85 29.92 0.0
16 00:55 S 9 0.75 Sky Obscured with Haze VV005 82.4 68 62% 85 29.92 0.0
16 00:35 S 10 0.50 Sky Obscured with Haze VV005 84.2 68 58% 87 29.92 0.0
16 00:15 S 9 G 16 0.75 Sky Obscured with Haze VV005 84.2 68 58% 87 29.91 0.0
15 23:55 S 10 1.25 Sky Obscured with Haze VV007 84.2 68 58% 87 29.91 0.0
15 23:35 S 10 5.00 Fair with Haze CLR 86 68 55% 89 29.91 0.0
15 23:15 S 10 10.00 Light Rain CLR 86 69.8 59% 91 29.91 0.0
15 22:55 S 8 4.00 Fair with Haze CLR 86 68 55% 89 29.91 0.0
15 22:35 S 9 10.00 Fair CLR 86 68 55% 89 29.91 0.0
15 22:15 S 9 10.00 Fair CLR 86 68 55% 89 29.9 0.0
15 21:55 S 7 7.00 Fair CLR 86 68 55% 89 29.9 0.0
15 21:35 S 6 10.00 Fair CLR 86 66.2 52% 88 29.9 0.0
15 21:15 S 6 10.00 Fair CLR 87.8 66.2 49% 90 29.9 0.0
15 20:55 S 6 10.00 Fair CLR 89.6 66.2 46% 92 29.9 0.0
15 20:35 S 7 10.00 Fair CLR 91.4 66.2 44% 94 29.9 0.0
15 20:15 S 6 10.00 Fair CLR 95 64.4 36% 97 29.89 0.0
15 19:55 S 6 10.00 Fair CLR 95 60.8 32% 95 29.9 0.0
15 19:35 S 7 10.00 Fair CLR 96.8 59 28% 96 29.89 0.0
15 19:15 S 7 10.00 Fair CLR 98.6 59 27% 98 29.9 0.0
15 18:55 S 10 10.00 Fair CLR 98.6 60.8 29% 99 29.9 0.0
15 18:35 S 9 10.00 Fair CLR 98.6 60.8 29% 99 29.9 0.0
15 18:15 S 9 G 16 10.00 Fair CLR 98.6 60.8 29% 99 29.9 0.0
15 17:55 S 8 10.00 Fair CLR 100.4 60.8 27% 101 29.9 0.0
15 17:35 SW 10 10.00 Fair CLR 100.4 59 25% 100 29.9 0.0
15 17:15 SW 14 G 17 10.00 Fair CLR 100.4 59 25% 100 29.91 0.0
15 16:55 SW 9 10.00 Fair CLR 100.4 59 25% 100 29.91 0.0
15 16:35 SW 9 G 16 10.00 Fair CLR 98.6 60.8 29% 99 29.92 0.0
15 16:15 S 14 10.00 Fair CLR 98.6 60.8 29% 99 29.93 0.0
15 15:55 SW 12 10.00 Fair CLR 98.6 60.8 29% 99 29.94 0.0
15 15:35 S 9 10.00 Fair CLR 98.6 62.6 31% 100 29.95 0.0
15 15:15 SW 8 10.00 Fair CLR 98.6 60.8 29% 99 29.96 0.0
15 14:55 SW 10 G 16 10.00 Fair CLR 96.8 64.4 34% 99 29.97 0.0
15 14:35 SW 9 10.00 Fair CLR 96.8 64.4 34% 99 29.97 0.0
15 14:15 SW 10 10.00 Fair CLR 96.8 64.4 34% 99 29.97 0.0
15 13:55 SW 8 10.00 Fair CLR 96.8 66.2 37% 100 29.98 0.0
15 13:35 S 10 10.00 Fair CLR 95 68 41% 100 29.99 0.0
15 13:15 S 10 10.00 Fair CLR 95 68 41% 100 30 0.0
15 12:55 SW 8 10.00 Fair CLR 93.2 68 44% 98 30 0.0
15 12:35 S 9 10.00 Fair CLR 91.4 68 46% 96 30.01 0.0
15 12:15 SW 10 10.00 Fair CLR 91.4 68 46% 96 30.02 0.0
15 11:55 S 12 10.00 Fair CLR 91.4 68 46% 96 30.03 0.0
15 11:35 SW 9 10.00 Fair CLR 91.4 68 46% 96 30.03 0.0
15 11:15 SW 12 10.00 Fair CLR 89.6 68 49% 93 30.04 0.0
15 10:55 SW 13 10.00 Fair CLR 89.6 68 49% 93 30.04 0.0
15 10:35 SW 13 10.00 Fair CLR 87.8 68 52% 91 30.05 0.0
15 10:15 SW 14 10.00 Fair CLR 87.8 68 52% 91 30.04 0.0
15 09:55 SW 14 G 18 10.00 Fair CLR 86 68 55% 89 30.04 0.0
15 09:35 SW 10 10.00 Fair CLR 84.2 69.8 62% 88 30.05 0.0
15 09:15 SW 10 10.00 Fair CLR 82.4 68 62% 85 30.05 0.0
15 08:55 SW 10 10.00 Fair CLR 80.6 68 66% 83 30.05 0.0
15 08:35 S 12 10.00 Fair CLR 80.6 68 66% 83 30.05 0.0
15 08:15 S 8 10.00 Fair CLR 78.8 68 70% 81 30.04 0.0
15 07:55 S 8 10.00 Fair CLR 78.8 69.8 74% 81 30.03 0.0
15 07:35 S 7 10.00 Fair CLR 77 68 74% 79 30.03 0.0
15 07:15 S 7 10.00 Fair CLR 77 68 74% 79 30.03 0.0
15 06:55 S 7 10.00 Fair CLR 77 68 74% 79 30.03 0.0
15 06:35 S 7 10.00 Fair CLR 77 68 74% 79 30.03 0.0
15 06:15 S 7 4.00 Light Drizzle CLR 77 68 74% 79 30.02 0.0
15 05:55 S 5 1.75 Drizzle VV007 77 68 74% 79 30.02 0.0
15 05:35 S 5 1.00 Drizzle VV007 77 68 74% 79 30.01 0.0
15 05:15 S 6 1.50 Heavy Drizzle VV007 77 68 74% 79 30.01 0.0
15 04:55 S 6 2.50 Drizzle CLR 78.8 68 70% 81 30.01 0.0
15 04:35 S 6 2.00 Drizzle CLR 78.8 68 70% 81 30.01 0.0
15 04:15 S 6 2.50 Drizzle CLR 78.8 68 70% 81 30.01 0.0
15 03:55 S 6 1.75 Drizzle VV007 78.8 68 70% 81 30.01 0.0
15 03:35 SW 6 0.50 Drizzle VV005 78.8 68 70% 81 30.01 0.0
15 03:15 SW 6 0.50 Drizzle VV005 80.6 68 66% 83 30.01 0.0
15 02:55 S 7 0.50 Heavy Drizzle VV005 80.6 68 66% 83 30.01 0.0
15 02:35 S 7 2.00 Heavy Drizzle CLR 80.6 68 66% 83 30.02 0.0
15 02:15 S 7 0.75 Heavy Drizzle VV005 80.6 68 66% 83 30.02 0.0
15 01:55 S 7 1.25 Heavy Drizzle VV007 82.4 68 62% 85 30.02 0.0
15 01:35 S 9 1.25 Heavy Drizzle VV007 82.4 68 62% 85 30.02 0.0
15 01:15 S 10 1.25 Heavy Rain VV007 82.4 69.8 66% 86 30.02 0.0
15 00:55 S 12 2.50 Light Rain CLR 82.4 69.8 66% 86 30.02 0.0
15 00:35 S 10 2.00 Heavy Rain CLR 84.2 69.8 62% 88 30.03 0.0
15 00:15 S 12 0.75 Sky Obscured with Haze VV005 84.2 69.8 62% 88 30.03 0.0
14 23:55 S 10 1.50 Sky Obscured with Haze VV007 86 69.8 59% 91 30.03 0.0
14 23:35 S 12 1.75 Sky Obscured with Haze VV007 86 69.8 59% 91 30.03 0.0
14 23:15 S 9 3.00 Fair with Haze CLR 86 68 55% 89 30.03 0.0
14 22:55 S 12 10.00 Fair CLR 86 69.8 59% 91 30.03 0.0
14 22:35 S 8 10.00 Fair CLR 86 69.8 59% 91 30.03 0.0
14 22:15 S 8 10.00 Fair CLR 86 69.8 59% 91 30.02 0.0
14 21:55 S 9 10.00 Fair CLR 86 68 55% 89 30.02 0.0
14 21:35 S 8 10.00 Fair CLR 86 68 55% 89 30.02 0.0
14 21:15 S 6 10.00 Fair CLR 87.8 68 52% 91 30.01 0.0
14 20:55 S 5 10.00 Fair CLR 89.6 68 49% 93 30 0.0
14 20:35 S 5 10.00 Fair CLR 91.4 68 46% 96 30 0.0
14 20:15 S 5 10.00 Fair CLR 93.2 68 44% 98 30.01 0.0
14 19:55 S 7 10.00 Fair CLR 95 66.2 39% 98 30 0.0
14 19:35 S 8 10.00 Partly Cloudy SCT075 96.8 64.4 34% 99 30.01 0.0
14 19:15 S 8 10.00 Partly Cloudy SCT075 96.8 64.4 34% 99 30.01 0.0
14 18:55 S 9 10.00 Partly Cloudy SCT065 98.6 62.6 31% 100 30.02 0.0
14 18:35 S 8 10.00 Partly Cloudy SCT065 SCT075 98.6 62.6 31% 100 30.02 0.0
Date Time (cdt) Wind (mph) Vis. (mi.) Weather Sky Cond. Air Dwpt Max. Min. Relative Humidity Wind Chill (°F) Heat Index (°F) altimeter (in) sea level (mb) 1 hr 3 hr 6 hr
6 hour
Temperature (ºF) Pressure Precipitation (in)